Location: Zagreb
(45.8000°N, 16.0000°E)
Time: 22:29:00
(UTC+02:00)

Tiangong - Visible Passes

Search period start: 21 April 2024 00:00
Search period end: 01 May 2024 00:00
Orbit: 371 x 379 km, 41.5° (Epoch: 21 April)

Date Brightness Start Highest point End Pass type
(mag) Time Alt. Az. Time Alt. Az. Time Alt. Az.
21 Apr -1.2 20:25:03 10° SW 20:27:49 31° S 20:30:36 10° ESE visible
21 Apr -0.3 22:01:16 10° WSW 22:02:42 22° SW 22:02:42 22° SW visible
22 Apr -1.4 20:58:28 10° WSW 21:01:20 36° S 21:02:50 22° SE visible
23 Apr -1.1 21:32:04 10° WSW 21:34:47 29° SSW 21:34:52 29° S visible
24 Apr -1.2 20:29:06 10° WSW 20:31:57 34° S 20:34:48 10° ESE visible
24 Apr 0.3 22:05:58 10° WSW 22:06:50 14° SW 22:06:50 14° SW visible
25 Apr -0.7 21:02:42 10° WSW 21:05:16 24° SSW 21:06:43 17° SSE visible
26 Apr 0.2 21:36:56 10° SW 21:38:23 13° SSW 21:38:34 13° SSW visible
27 Apr -0.2 20:33:14 10° WSW 20:35:29 19° SSW 20:37:45 10° SSE visible
